Location: *
(45.0500°N, 12.0500°E)
Time: 09:18:55
(UTC+00:00)

STARLINK-1247 - Pass Details

Date: 09 April 2020
Orbit: 388 x 390 km, 53.0° (Epoch: 07 June)

Event Time Altitude Azimuth Distance (km) Brightness Sun altitude
Rises 19:43:37 0° 303° (WNW) 2,217 8.4 -19.2°
Reaches altitude 10° 19:45:52 10° 318° (NW) 1,416 6.9 -19.5°
Maximum altitude 19:48:36 24° 14° (NNE) 873 4.8 -19.9°
Enters shadow 19:49:11 23° 31° (NNE) 906 4.7 -20.0°
